| time (UTC) | temp F | wind direction | speed MPH | gust MPH | rain 1hr in | rain 24hr in | rain mn in | humidity % | barometer mb |
| 20260509055356 | 57 | 103 | 0.0 | 0.0 | 0.00 | 0.00 | 0.00 | 98 | 1031.7 |
| 20260509054853 | 57 | 82 | 0.0 | 0.0 | 0.00 | 0.00 | 0.00 | 98 | 1031.9 |
| 20260509054350 | 57 | 31 | 0.0 | 0.0 | 0.00 | 0.00 | 0.00 | 98 | 1031.7 |
| 20260509053848 | 57 | 31 | 0.0 | 0.0 | 0.00 | 0.00 | 0.00 | 97 | 1031.8 |
| 20260509053345 | 57 | 31 | 0.0 | 0.0 | 0.00 | 0.00 | 0.00 | 97 | 1031.6 |
| 20260509052843 | 57 | 31 | 0.0 | 0.0 | 0.00 | 0.00 | 0.00 | 97 | 1032.0 |
| 20260509052340 | 57 | 31 | 0.0 | 0.0 | 0.00 | 0.00 | 0.00 | 96 | 1032.2 |
| 20260509051838 | 57 | 32 | 0.0 | 0.0 | 0.00 | 0.00 | 0.00 | 96 | 1032.0 |
| 20260509051336 | 58 | 32 | 0.0 | 0.0 | 0.00 | 0.00 | 0.00 | 96 | 1032.1 |
| 20260509050832 | 58 | 33 | 0.0 | 0.0 | 0.00 | 0.00 | 0.00 | 96 | 1032.3 |
| 20260509050329 | 58 | 52 | 0.0 | 0.0 | 0.00 | 0.00 | 0.00 | 96 | 1032.2 |
| 20260509045826 | 58 | 53 | 0.0 | 0.0 | 0.00 | 0.00 | 0.00 | 96 | 1032.1 |
| 20260509045323 | 58 | 53 | 0.0 | 0.0 | 0.00 | 0.00 | 0.00 | 96 | 1032.3 |
| 20260509044820 | 58 | 49 | 0.0 | 0.0 | 0.00 | 0.00 | 0.00 | 96 | 1032.3 |
| 20260509044318 | 58 | 50 | 0.0 | 0.0 | 0.00 | 0.00 | 0.00 | 96 | 1032.2 |
| 20260509043814 | 58 | 72 | 0.0 | 0.0 | 0.00 | 0.00 | 0.00 | 95 | 1032.2 |
| 20260509043310 | 58 | 70 | 0.0 | 0.0 | 0.00 | 0.00 | 0.00 | 95 | 1032.1 |
| 20260509042806 | 58 | 100 | 0.0 | 0.0 | 0.00 | 0.00 | 0.00 | 95 | 1032.3 |
| 20260509042306 | 58 | 58 | 0.0 | 0.0 | 0.00 | 0.00 | 0.00 | 95 | 1032.1 |
| 20260509041759 | 58 | 50 | 0.0 | 0.0 | 0.00 | 0.00 | 0.00 | 95 | 1032.1 |
| 20260509041256 | 58 | 53 | 0.0 | 0.0 | 0.00 | 0.00 | 0.00 | 95 | 1032.1 |
| 20260509040755 | 58 | 46 | 0.0 | 0.0 | 0.00 | 0.00 | 0.00 | 94 | 1032.3 |
| 20260509040252 | 58 | 47 | 0.0 | 0.0 | 0.00 | 0.00 | 0.00 | 94 | 1032.1 |
| 20260509035749 | 58 | 53 | 0.0 | 0.0 | 0.00 | 0.00 | 0.00 | 94 | 1032.0 |
| 20260509035246 | 58 | 53 | 0.0 | 0.0 | 0.00 | 0.00 | 0.00 | 94 | 1032.2 |
| 20260509034742 | 58 | 55 | 0.0 | 0.0 | 0.00 | 0.00 | 0.00 | 94 | 1032.3 |
| 20260509034240 | 58 | 59 | 0.0 | 0.0 | 0.00 | 0.00 | 0.00 | 94 | 1032.4 |
| 20260509033737 | 58 | 51 | 0.0 | 0.0 | 0.00 | 0.00 | 0.00 | 94 | 1032.1 |
| 20260509033234 | 59 | 53 | 0.0 | 0.0 | 0.00 | 0.00 | 0.00 | 94 | 1032.5 |
| 20260509032731 | 59 | 42 | 0.0 | 0.0 | 0.00 | 0.00 | 0.00 | 94 | 1032.3 |
| 20260509032228 | 59 | 40 | 0.0 | 0.0 | 0.00 | 0.00 | 0.00 | 93 | 1032.5 |
| 20260509031725 | 59 | 40 | 0.0 | 0.0 | 0.00 | 0.00 | 0.00 | 93 | 1032.4 |
| 20260509031223 | 59 | 40 | 0.0 | 0.0 | 0.00 | 0.00 | 0.00 | 93 | 1032.1 |
| 20260509030721 | 59 | 40 | 0.0 | 0.0 | 0.00 | 0.00 | 0.00 | 92 | 1032.3 |
| 20260509030218 | 59 | 41 | 0.0 | 0.0 | 0.00 | 0.00 | 0.00 | 92 | 1032.0 |
| 20260509025714 | 59 | 30 | 0.0 | 0.0 | 0.00 | 0.00 | 0.00 | 92 | 1031.8 |
| 20260509025210 | 59 | 26 | 0.0 | 0.0 | 0.00 | 0.00 | 0.00 | 91 | 1031.9 |
| 20260509024705 | 59 | 26 | 0.0 | 0.0 | 0.00 | 0.00 | 0.00 | 91 | 1032.2 |
| 20260509024202 | 59 | 26 | 0.0 | 0.0 | 0.00 | 0.00 | 0.00 | 90 | 1032.1 |
| 20260509023659 | 59 | 26 | 0.0 | 0.0 | 0.00 | 0.00 | 0.00 | 90 | 1032.2 |
| 20260509023156 | 59 | 43 | 0.0 | 0.0 | 0.00 | 0.00 | 0.00 | 90 | 1032.3 |
| 20260509022646 | 59 | 37 | 0.0 | 0.0 | 0.00 | 0.00 | 0.00 | 91 | 1032.4 |
| 20260509022145 | 59 | 48 | 0.0 | 0.0 | 0.00 | 0.00 | 0.00 | 91 | 1032.5 |
| 20260509021641 | 59 | 87 | 0.0 | 0.0 | 0.00 | 0.00 | 0.00 | 92 | 1032.2 |
| 20260509021138 | 59 | 309 | 0.0 | 0.0 | 0.00 | 0.00 | 0.00 | 92 | 1032.3 |
| 20260509020637 | 59 | 352 | 0.0 | 0.0 | 0.00 | 0.00 | 0.00 | 91 | 1032.5 |
| 20260509020133 | 59 | 354 | 0.0 | 0.0 | 0.00 | 0.00 | 0.00 | 91 | 1032.5 |
| 20260509015632 | 59 | 354 | 0.0 | 0.0 | 0.00 | 0.00 | 0.00 | 91 | 1032.4 |
| 20260509015129 | 59 | 357 | 0.0 | 0.0 | 0.00 | 0.00 | 0.00 | 91 | 1032.2 |
| 20260509014625 | 59 | 357 | 0.0 | 0.0 | 0.00 | 0.00 | 0.00 | 90 | 1032.2 |
| 20260509014122 | 59 | 357 | 0.0 | 0.0 | 0.00 | 0.00 | 0.00 | 89 | 1032.1 |
| 20260509013619 | 59 | 357 | 0.0 | 0.0 | 0.00 | 0.00 | 0.00 | 90 | 1032.1 |
| 20260509013114 | 59 | 357 | 0.0 | 0.0 | 0.00 | 0.00 | 0.00 | 90 | 1032.1 |
| 20260509012612 | 59 | 357 | 0.0 | 0.0 | 0.00 | 0.00 | 0.00 | 90 | 1031.8 |
| 20260509012108 | 59 | 357 | 0.0 | 0.0 | 0.00 | 0.00 | 0.00 | 89 | 1031.9 |
| 20260509011606 | 59 | 357 | 0.0 | 0.0 | 0.00 | 0.00 | 0.00 | 89 | 1032.1 |
| 20260509011103 | 59 | 357 | 0.0 | 0.0 | 0.00 | 0.00 | 0.00 | 89 | 1032.0 |
| 20260509010601 | 59 | 357 | 0.0 | 0.0 | 0.00 | 0.00 | 0.00 | 90 | 1032.3 |
| 20260509010057 | 59 | 357 | 0.0 | 0.0 | 0.00 | 0.00 | 0.00 | 90 | 1032.2 |
| 20260509005555 | 60 | 357 | 0.0 | 0.0 | 0.00 | 0.00 | 0.00 | 90 | 1032.2 |
| 20260509005050 | 60 | 357 | 0.0 | 0.0 | 0.00 | 0.00 | 0.00 | 88 | 1032.4 |
| 20260509004547 | 60 | 357 | 0.0 | 0.0 | 0.00 | 0.00 | 0.00 | 88 | 1032.2 |
| 20260509004044 | 60 | 357 | 0.0 | 0.0 | 0.00 | 0.00 | 0.00 | 88 | 1032.3 |
| 20260509003543 | 60 | 357 | 0.0 | 0.0 | 0.00 | 0.00 | 0.00 | 88 | 1032.3 |
| 20260509003039 | 60 | 357 | 0.0 | 0.0 | 0.00 | 0.00 | 0.00 | 88 | 1032.4 |
| 20260509002537 | 60 | 357 | 0.0 | 0.0 | 0.00 | 0.00 | 0.00 | 87 | 1032.3 |
| 20260509002034 | 60 | 357 | 0.0 | 0.0 | 0.00 | 0.00 | 0.00 | 88 | 1032.3 |
| 20260509001532 | 60 | 357 | 0.0 | 0.0 | 0.00 | 0.00 | 0.00 | 88 | 1032.3 |
| 20260509001027 | 60 | 357 | 0.0 | 0.0 | 0.00 | 0.00 | 0.00 | 89 | 1032.4 |
| 20260509000526 | 60 | 357 | 0.0 | 0.0 | 0.00 | 0.00 | 0.00 | 90 | 1032.4 |
| 20260509000021 | 60 | 357 | 0.0 | 0.0 | 0.00 | 0.00 | 0.00 | 89 | 1032.3 |
| 20260508235519 | 60 | 357 | 0.0 | 0.0 | 0.00 | 0.00 | 0.00 | 88 | 1032.6 |
| 20260508235015 | 61 | 357 | 0.0 | 0.0 | 0.00 | 0.00 | 0.00 | 89 | 1032.8 |
| 20260508234507 | 61 | 357 | 0.0 | 0.0 | 0.00 | 0.00 | 0.00 | 86 | 1032.7 |
| 20260508234004 | 61 | 357 | 0.0 | 0.0 | 0.00 | 0.00 | 0.00 | 86 | 1033.2 |
| 20260508233503 | 61 | 357 | 0.0 | 0.0 | 0.00 | 0.00 | 0.00 | 86 | 1033.3 |
| 20260508233000 | 61 | 357 | 0.0 | 0.0 | 0.00 | 0.00 | 0.00 | 85 | 1033.2 |
| 20260508232457 | 61 | 357 | 0.0 | 0.0 | 0.00 | 0.00 | 0.00 | 85 | 1033.2 |
| 20260508231954 | 61 | 357 | 0.0 | 0.0 | 0.00 | 0.00 | 0.00 | 85 | 1033.3 |
| 20260508231451 | 62 | 357 | 0.0 | 0.0 | 0.00 | 0.00 | 0.00 | 86 | 1033.4 |
| 20260508230949 | 62 | 357 | 0.0 | 0.0 | 0.00 | 0.00 | 0.00 | 85 | 1033.6 |
| 20260508230445 | 62 | 357 | 0.0 | 0.0 | 0.00 | 0.00 | 0.00 | 85 | 1033.5 |
| 20260508225942 | 62 | 357 | 0.0 | 0.0 | 0.00 | 0.00 | 0.00 | 87 | 1033.3 |
| 20260508225439 | 62 | 358 | 0.0 | 0.0 | 0.00 | 0.00 | 0.00 | 87 | 1033.4 |
| 20260508224936 | 62 | 358 | 0.0 | 0.0 | 0.00 | 0.00 | 0.00 | 87 | 1033.1 |
| 20260508224434 | 62 | 358 | 0.0 | 0.0 | 0.00 | 0.00 | 0.00 | 86 | 1033.3 |
| 20260508223931 | 62 | 358 | 0.0 | 0.0 | 0.00 | 0.00 | 0.00 | 85 | 1033.5 |
| 20260508223429 | 62 | 358 | 0.0 | 0.0 | 0.00 | 0.00 | 0.00 | 85 | 1033.4 |
| 20260508222925 | 62 | 358 | 0.0 | 0.0 | 0.00 | 0.00 | 0.00 | 84 | 1033.6 |
| 20260508222423 | 62 | 358 | 0.0 | 0.0 | 0.00 | 0.00 | 0.00 | 83 | 1033.5 |
| 20260508221919 | 62 | 358 | 0.0 | 0.0 | 0.00 | 0.00 | 0.00 | 84 | 1033.6 |
| 20260508221414 | 62 | 358 | 0.0 | 0.0 | 0.00 | 0.00 | 0.00 | 85 | 1033.5 |
| 20260508220912 | 62 | 357 | 0.0 | 0.0 | 0.00 | 0.00 | 0.00 | 86 | 1033.5 |
| 20260508220408 | 62 | 358 | 0.0 | 0.0 | 0.00 | 0.00 | 0.00 | 86 | 1033.6 |
| 20260508215904 | 62 | 358 | 0.0 | 0.0 | 0.00 | 0.00 | 0.00 | 86 | 1033.4 |
| 20260508215402 | 63 | 358 | 0.0 | 0.0 | 0.00 | 0.00 | 0.00 | 85 | 1033.4 |
| 20260508214858 | 63 | 358 | 0.0 | 0.0 | 0.00 | 0.00 | 0.00 | 84 | 1033.4 |
| 20260508214356 | 63 | 358 | 0.0 | 0.0 | 0.00 | 0.00 | 0.00 | 84 | 1033.3 |
| 20260508213852 | 63 | 357 | 0.0 | 0.0 | 0.00 | 0.00 | 0.00 | 83 | 1033.3 |
| 20260508213349 | 63 | 358 | 0.0 | 0.0 | 0.00 | 0.00 | 0.00 | 83 | 1033.5 |
| 20260508212845 | 63 | 358 | 0.0 | 0.0 | 0.00 | 0.00 | 0.00 | 84 | 1033.7 |
| 20260508212341 | 63 | 358 | 0.0 | 0.0 | 0.00 | 0.00 | 0.00 | 84 | 1033.5 |
| 20260508211837 | 63 | 1 | 0.0 | 0.0 | 0.00 | 0.00 | 0.00 | 83 | 1033.7 |
| 20260508211333 | 63 | 1 | 0.0 | 0.0 | 0.00 | 0.00 | 0.00 | 81 | 1033.7 |
| 20260508210830 | 63 | 0 | 0.0 | 0.0 | 0.00 | 0.00 | 0.00 | 81 | 1033.6 |
| 20260508210327 | 63 | 5 | 0.0 | 0.0 | 0.00 | 0.00 | 0.00 | 84 | 1033.9 |
| 20260508205818 | 63 | 6 | 0.0 | 0.0 | 0.00 | 0.00 | 0.00 | 83 | 1033.9 |
| 20260508205314 | 63 | 6 | 0.0 | 0.0 | 0.00 | 0.00 | 0.00 | 82 | 1033.9 |
| 20260508204811 | 63 | 6 | 0.0 | 0.0 | 0.00 | 0.00 | 0.00 | 81 | 1033.8 |
| 20260508204307 | 63 | 6 | 0.0 | 0.0 | 0.00 | 0.00 | 0.00 | 81 | 1034.1 |
| 20260508203803 | 63 | 6 | 0.0 | 0.0 | 0.00 | 0.00 | 0.00 | 80 | 1033.8 |
| 20260508203300 | 63 | 6 | 0.0 | 0.0 | 0.00 | 0.00 | 0.00 | 81 | 1033.6 |
| 20260508202755 | 64 | 6 | 0.0 | 0.0 | 0.00 | 0.00 | 0.00 | 81 | 1033.8 |
| 20260508202253 | 64 | 6 | 0.0 | 0.0 | 0.00 | 0.00 | 0.00 | 79 | 1034.0 |
| 20260508201750 | 64 | 6 | 0.0 | 0.0 | 0.00 | 0.00 | 0.00 | 81 | 1033.9 |
| 20260508201247 | 64 | 6 | 0.0 | 0.0 | 0.00 | 0.00 | 0.00 | 81 | 1033.9 |
| 20260508200743 | 64 | 7 | 0.0 | 0.0 | 0.00 | 0.00 | 0.00 | 82 | 1033.9 |
| 20260508200240 | 64 | 6 | 0.0 | 0.0 | 0.00 | 0.00 | 0.00 | 82 | 1034.0 |
| 20260508195736 | 64 | 7 | 0.0 | 0.0 | 0.00 | 0.00 | 0.00 | 79 | 1033.9 |
| 20260508195232 | 64 | 6 | 0.0 | 0.0 | 0.00 | 0.00 | 0.00 | 78 | 1034.2 |
| 20260508194729 | 64 | 6 | 0.0 | 0.0 | 0.00 | 0.00 | 0.00 | 78 | 1034.1 |
| 20260508194226 | 64 | 6 | 0.0 | 0.0 | 0.00 | 0.00 | 0.00 | 78 | 1034.1 |
| 20260508193723 | 63 | 7 | 0.0 | 0.0 | 0.00 | 0.00 | 0.00 | 80 | 1034.2 |
| 20260508193220 | 64 | 7 | 0.0 | 0.0 | 0.00 | 0.00 | 0.00 | 79 | 1034.4 |
| 20260508192716 | 64 | 7 | 0.0 | 0.0 | 0.00 | 0.00 | 0.00 | 78 | 1034.3 |
| 20260508192213 | 64 | 6 | 0.0 | 0.0 | 0.00 | 0.00 | 0.00 | 77 | 1034.3 |
| 20260508191711 | 64 | 6 | 0.0 | 1.0 | 0.00 | 0.00 | 0.00 | 75 | 1034.3 |
| 20260508191202 | 64 | 30 | 0.0 | 0.0 | 0.00 | 0.00 | 0.00 | 75 | 1034.4 |
| 20260508190700 | 64 | 192 | 1.0 | 1.0 | 0.00 | 0.00 | 0.00 | 75 | 1034.2 |
| 20260508190155 | 64 | 19 | 0.0 | 0.0 | 0.00 | 0.00 | 0.00 | 83 | 1033.8 |
| 20260508185652 | 64 | 10 | 0.0 | 0.0 | 0.00 | 0.00 | 0.00 | 81 | 1033.8 |
| 20260508185150 | 64 | 316 | 0.0 | 0.0 | 0.00 | 0.00 | 0.00 | 74 | 1034.4 |
| 20260508184647 | 64 | 26 | 0.0 | 0.0 | 0.00 | 0.00 | 0.00 | 81 | 1034.3 |
| 20260508184144 | 64 | 8 | 0.0 | 0.0 | 0.00 | 0.00 | 0.00 | 78 | 1034.3 |
| 20260508183641 | 63 | 356 | 0.0 | 0.0 | 0.00 | 0.00 | 0.00 | 80 | 1034.7 |
| 20260508183136 | 64 | 353 | 0.0 | 0.0 | 0.00 | 0.00 | 0.00 | 77 | 1034.5 |
| 20260508182633 | 63 | 14 | 0.0 | 0.0 | 0.00 | 0.00 | 0.00 | 78 | 1034.7 |
| 20260508182129 | 64 | 13 | 0.0 | 0.0 | 0.00 | 0.00 | 0.00 | 77 | 1035.2 |
| 20260508181625 | 65 | 2 | 0.0 | 0.0 | 0.00 | 0.00 | 0.00 | 80 | 1034.8 |
| 20260508181122 | 64 | 1 | 0.0 | 0.0 | 0.00 | 0.00 | 0.00 | 76 | 1035.1 |
| 20260508180619 | 65 | 7 | 0.0 | 0.0 | 0.00 | 0.00 | 0.00 | 74 | 1035.5 |
| 20260508180116 | 65 | 2 | 0.0 | 0.0 | 0.00 | 0.00 | 0.00 | 76 | 1035.3 |
| 20260508175613 | 65 | 3 | 0.0 | 0.0 | 0.00 | 0.00 | 0.00 | 76 | 1035.4 |
| 20260508175109 | 65 | 348 | 0.0 | 0.0 | 0.00 | 0.00 | 0.00 | 74 | 1035.4 |
| 20260508174607 | 65 | 22 | 0.0 | 0.0 | 0.00 | 0.00 | 0.00 | 74 | 1035.6 |
| 20260508174104 | 64 | 26 | 0.0 | 0.0 | 0.00 | 0.00 | 0.00 | 73 | 1036.0 |
| 20260508173601 | 65 | 14 | 0.0 | 0.0 | 0.00 | 0.00 | 0.00 | 78 | 1035.6 |
| 20260508173057 | 65 | 23 | 0.0 | 0.0 | 0.00 | 0.00 | 0.00 | 73 | 1035.7 |
| 20260508172554 | 65 | 8 | 0.0 | 0.0 | 0.00 | 0.00 | 0.00 | 75 | 1035.4 |
| 20260508172050 | 64 | 187 | 0.0 | 0.0 | 0.00 | 0.00 | 0.00 | 73 | 1035.5 |
| 20260508171547 | 64 | 25 | 0.0 | 0.0 | 0.00 | 0.00 | 0.00 | 75 | 1035.7 |
| 20260508171044 | 65 | 25 | 0.0 | 0.0 | 0.00 | 0.00 | 0.00 | 74 | 1036.0 |
| 20260508170541 | 65 | 20 | 0.0 | 0.0 | 0.00 | 0.00 | 0.00 | 76 | 1035.9 |
| 20260508170038 | 65 | 17 | 0.0 | 0.0 | 0.00 | 0.00 | 0.00 | 77 | 1036.1 |
| 20260508165535 | 65 | 21 | 0.0 | 0.0 | 0.00 | 0.00 | 0.00 | 73 | 1036.1 |
| 20260508165032 | 65 | 9 | 0.0 | 0.0 | 0.00 | 0.00 | 0.00 | 72 | 1036.3 |
| 20260508164528 | 65 | 352 | 0.0 | 0.0 | 0.00 | 0.00 | 0.00 | 73 | 1036.3 |
| 20260508164025 | 65 | 341 | 0.0 | 0.0 | 0.00 | 0.00 | 0.00 | 71 | 1036.5 |
| 20260508163523 | 65 | 346 | 0.0 | 0.0 | 0.00 | 0.00 | 0.00 | 73 | 1036.5 |
| 20260508163019 | 65 | 16 | 0.0 | 0.0 | 0.00 | 0.00 | 0.00 | 71 | 1036.5 |
| 20260508162516 | 66 | 22 | 0.0 | 0.0 | 0.00 | 0.00 | 0.00 | 69 | 1036.4 |
| 20260508162013 | 66 | 347 | 1.0 | 1.0 | 0.00 | 0.00 | 0.00 | 69 | 1036.5 |
| 20260508161510 | 66 | 12 | 0.0 | 0.0 | 0.00 | 0.00 | 0.00 | 74 | 1036.3 |
| 20260508161008 | 66 | 18 | 0.0 | 0.0 | 0.00 | 0.00 | 0.00 | 73 | 1036.6 |
| 20260508160506 | 66 | 31 | 0.0 | 0.0 | 0.00 | 0.00 | 0.00 | 70 | 1036.8 |
| 20260508160003 | 66 | 344 | 0.0 | 0.0 | 0.00 | 0.00 | 0.00 | 74 | 1036.7 |
| 20260508155500 | 65 | 346 | 1.0 | 1.0 | 0.00 | 0.00 | 0.00 | 76 | 1036.7 |
| 20260508154956 | 65 | 8 | 0.0 | 0.0 | 0.00 | 0.00 | 0.00 | 77 | 1036.9 |
| 20260508154454 | 64 | 14 | 0.0 | 0.0 | 0.00 | 0.00 | 0.00 | 76 | 1037.3 |
| 20260508153950 | 65 | 347 | 1.0 | 1.0 | 0.00 | 0.00 | 0.00 | 76 | 1037.2 |
| 20260508153447 | 65 | 357 | 0.0 | 0.0 | 0.00 | 0.00 | 0.00 | 78 | 1036.9 |
| 20260508152943 | 64 | 17 | 0.0 | 0.0 | 0.00 | 0.00 | 0.00 | 75 | 1037.1 |
| 20260508152440 | 64 | 24 | 0.0 | 0.0 | 0.00 | 0.00 | 0.00 | 79 | 1036.9 |
| 20260508151936 | 64 | 22 | 0.0 | 0.0 | 0.00 | 0.00 | 0.00 | 79 | 1036.9 |
| 20260508151433 | 64 | 13 | 0.0 | 0.0 | 0.00 | 0.00 | 0.00 | 77 | 1036.8 |
| 20260508150930 | 63 | 2 | 0.0 | 0.0 | 0.00 | 0.00 | 0.00 | 80 | 1036.7 |
| 20260508150426 | 63 | 15 | 0.0 | 0.0 | 0.00 | 0.00 | 0.00 | 79 | 1037.0 |
| 20260508145922 | 63 | 11 | 0.0 | 0.0 | 0.00 | 0.00 | 0.00 | 82 | 1037.1 |
| 20260508145419 | 63 | 11 | 0.0 | 0.0 | 0.00 | 0.00 | 0.00 | 81 | 1036.9 |
| 20260508144916 | 63 | 34 | 0.0 | 0.0 | 0.00 | 0.00 | 0.00 | 81 | 1037.0 |
| 20260508144414 | 63 | 14 | 0.0 | 0.0 | 0.00 | 0.00 | 0.00 | 80 | 1037.0 |
| 20260508143911 | 63 | 29 | 0.0 | 0.0 | 0.00 | 0.00 | 0.00 | 80 | 1037.1 |
| 20260508143408 | 63 | 164 | 1.0 | 1.0 | 0.00 | 0.00 | 0.00 | 78 | 1037.0 |
| 20260508142904 | 63 | 105 | 0.0 | 0.0 | 0.00 | 0.00 | 0.00 | 80 | 1037.3 |
| 20260508142402 | 62 | 174 | 1.0 | 2.0 | 0.00 | 0.00 | 0.00 | 81 | 1037.0 |
| 20260508141857 | 62 | 14 | 0.0 | 0.0 | 0.00 | 0.00 | 0.00 | 79 | 1037.3 |
| 20260508141355 | 62 | 168 | 1.0 | 2.0 | 0.00 | 0.00 | 0.00 | 80 | 1037.1 |
| 20260508140852 | 61 | 26 | 0.0 | 0.0 | 0.00 | 0.00 | 0.00 | 84 | 1037.2 |
| 20260508140350 | 61 | 174 | 1.0 | 1.0 | 0.00 | 0.00 | 0.00 | 85 | 1037.4 |
| 20260508135845 | 61 | 358 | 0.0 | 0.0 | 0.00 | 0.00 | 0.00 | 87 | 1037.3 |
| 20260508135342 | 60 | 199 | 0.0 | 0.0 | 0.00 | 0.00 | 0.00 | 86 | 1037.9 |
| 20260508134838 | 60 | 176 | 0.0 | 0.0 | 0.00 | 0.00 | 0.00 | 86 | 1037.8 |
| 20260508134334 | 59 | 175 | 0.0 | 0.0 | 0.00 | 0.00 | 0.00 | 87 | 1037.5 |
| 20260508133831 | 59 | 179 | 0.0 | 0.0 | 0.00 | 0.00 | 0.00 | 87 | 1037.5 |
| 20260508133329 | 59 | 136 | 0.0 | 0.0 | 0.00 | 0.00 | 0.00 | 87 | 1037.7 |
| 20260508132826 | 59 | 43 | 0.0 | 0.0 | 0.00 | 0.00 | 0.00 | 86 | 1037.7 |
| 20260508132324 | 58 | 42 | 0.0 | 0.0 | 0.00 | 0.00 | 0.00 | 89 | 1037.6 |
| 20260508131820 | 58 | 42 | 0.0 | 0.0 | 0.00 | 0.00 | 0.00 | 89 | 1037.5 |
| 20260508131316 | 58 | 43 | 0.0 | 0.0 | 0.00 | 0.00 | 0.00 | 90 | 1037.6 |
| 20260508130813 | 57 | 44 | 0.0 | 0.0 | 0.00 | 0.00 | 0.00 | 92 | 1037.5 |
| 20260508130310 | 57 | 58 | 0.0 | 0.0 | 0.00 | 0.00 | 0.00 | 91 | 1037.6 |
| 20260508125806 | 57 | 71 | 0.0 | 0.0 | 0.00 | 0.00 | 0.00 | 91 | 1037.1 |
| 20260508125305 | 57 | 53 | 0.0 | 0.0 | 0.00 | 0.00 | 0.00 | 92 | 1037.4 |
| 20260508124800 | 56 | 53 | 0.0 | 0.0 | 0.00 | 0.00 | 0.00 | 92 | 1037.0 |
| 20260508124257 | 56 | 55 | 0.0 | 0.0 | 0.00 | 0.00 | 0.00 | 92 | 1037.1 |
| 20260508123755 | 56 | 23 | 0.0 | 0.0 | 0.00 | 0.00 | 0.00 | 93 | 1037.1 |
| 20260508123252 | 55 | 65 | 0.0 | 0.0 | 0.00 | 0.00 | 0.00 | 94 | 1037.2 |
| 20260508122743 | 55 | 40 | 0.0 | 0.0 | 0.00 | 0.00 | 0.00 | 95 | 1037.2 |
| 20260508122240 | 55 | 22 | 0.0 | 0.0 | 0.00 | 0.00 | 0.00 | 95 | 1036.9 |
| 20260508121737 | 55 | 37 | 0.0 | 0.0 | 0.00 | 0.00 | 0.00 | 96 | 1036.8 |
| 20260508121236 | 55 | 47 | 0.0 | 0.0 | 0.00 | 0.00 | 0.00 | 96 | 1036.6 |
| 20260508120733 | 55 | 112 | 0.0 | 0.0 | 0.00 | 0.00 | 0.00 | 97 | 1036.7 |
| 20260508120231 | 55 | 72 | 0.0 | 0.0 | 0.00 | 0.00 | 0.00 | 97 | 1036.6 |
| 20260508115728 | 55 | 89 | 0.0 | 0.0 | 0.00 | 0.00 | 0.00 | 97 | 1036.9 |
| 20260508115226 | 54 | 73 | 0.0 | 0.0 | 0.00 | 0.00 | 0.00 | 97 | 1036.7 |
| 20260508114722 | 54 | 11 | 0.0 | 0.0 | 0.00 | 0.00 | 0.00 | 98 | 1036.4 |
| 20260508114219 | 54 | 299 | 0.0 | 0.0 | 0.00 | 0.00 | 0.00 | 98 | 1036.3 |
| 20260508113715 | 54 | 330 | 0.0 | 0.0 | 0.00 | 0.00 | 0.00 | 98 | 1036.4 |
| 20260508113214 | 54 | 352 | 0.0 | 0.0 | 0.00 | 0.00 | 0.00 | 98 | 1036.3 |
| 20260508112709 | 54 | 351 | 0.0 | 0.0 | 0.00 | 0.00 | 0.00 | 98 | 1036.4 |
| 20260508112207 | 54 | 4 | 0.0 | 0.0 | 0.00 | 0.00 | 0.00 | 98 | 1036.4 |
| 20260508111703 | 54 | 5 | 0.0 | 0.0 | 0.00 | 0.00 | 0.00 | 98 | 1036.1 |
| 20260508111200 | 54 | 5 | 0.0 | 0.0 | 0.00 | 0.00 | 0.00 | 98 | 1036.1 |
| 20260508110657 | 54 | 5 | 0.0 | 0.0 | 0.00 | 0.00 | 0.00 | 98 | 1036.0 |
| 20260508110154 | 54 | 5 | 0.0 | 0.0 | 0.00 | 0.00 | 0.00 | 98 | 1035.6 |
| 20260508105649 | 54 | 5 | 0.0 | 0.0 | 0.00 | 0.00 | 0.00 | 98 | 1035.7 |
| 20260508105146 | 54 | 5 | 0.0 | 0.0 | 0.00 | 0.00 | 0.00 | 98 | 1035.8 |
| 20260508104644 | 54 | 5 | 0.0 | 0.0 | 0.00 | 0.00 | 0.00 | 98 | 1035.9 |
| 20260508104140 | 54 | 5 | 0.0 | 0.0 | 0.00 | 0.00 | 0.00 | 98 | 1035.9 |
| 20260508103637 | 54 | 5 | 0.0 | 0.0 | 0.00 | 0.00 | 0.00 | 98 | 1035.6 |
| 20260508103135 | 54 | 5 | 0.0 | 0.0 | 0.00 | 0.00 | 0.00 | 98 | 1035.7 |
| 20260508102632 | 54 | 5 | 0.0 | 0.0 | 0.00 | 0.00 | 0.00 | 98 | 1035.7 |
| 20260508102130 | 54 | 4 | 0.0 | 0.0 | 0.00 | 0.00 | 0.00 | 98 | 1035.6 |
| 20260508101621 | 54 | 4 | 0.0 | 0.0 | 0.00 | 0.00 | 0.00 | 98 | 1035.8 |
| 20260508101118 | 55 | 4 | 0.0 | 0.0 | 0.00 | 0.00 | 0.00 | 98 | 1035.5 |
| 20260508100616 | 55 | 4 | 0.0 | 0.0 | 0.00 | 0.00 | 0.00 | 98 | 1035.6 |
| 20260508100114 | 54 | 4 | 0.0 | 0.0 | 0.00 | 0.00 | 0.00 | 98 | 1035.7 |
| 20260508095610 | 55 | 4 | 0.0 | 0.0 | 0.00 | 0.00 | 0.00 | 98 | 1035.5 |
| 20260508095107 | 55 | 4 | 0.0 | 0.0 | 0.00 | 0.00 | 0.00 | 98 | 1035.0 |
| 20260508094604 | 55 | 4 | 0.0 | 0.0 | 0.00 | 0.00 | 0.00 | 98 | 1035.3 |
| 20260508094100 | 55 | 4 | 0.0 | 0.0 | 0.00 | 0.00 | 0.00 | 98 | 1034.8 |
| 20260508093558 | 55 | 4 | 0.0 | 0.0 | 0.00 | 0.00 | 0.00 | 98 | 1035.0 |
| 20260508093056 | 55 | 4 | 0.0 | 0.0 | 0.00 | 0.00 | 0.00 | 98 | 1034.6 |
| 20260508092552 | 55 | 4 | 0.0 | 0.0 | 0.00 | 0.00 | 0.00 | 98 | 1034.6 |
| 20260508092052 | 55 | 4 | 0.0 | 0.0 | 0.00 | 0.00 | 0.00 | 99 | 1034.4 |
| 20260508091548 | 55 | 3 | 0.0 | 0.0 | 0.00 | 0.00 | 0.00 | 99 | 1034.2 |
| 20260508091045 | 55 | 3 | 0.0 | 0.0 | 0.00 | 0.00 | 0.00 | 99 | 1034.1 |
| 20260508090543 | 55 | 3 | 0.0 | 0.0 | 0.00 | 0.00 | 0.00 | 99 | 1034.3 |
| 20260508090039 | 55 | 3 | 0.0 | 0.0 | 0.00 | 0.00 | 0.00 | 99 | 1034.2 |
| 20260508085536 | 55 | 3 | 0.0 | 0.0 | 0.00 | 0.00 | 0.00 | 99 | 1034.3 |
| 20260508085033 | 55 | 3 | 0.0 | 0.0 | 0.00 | 0.00 | 0.00 | 99 | 1034.2 |
| 20260508084530 | 55 | 3 | 0.0 | 0.0 | 0.00 | 0.00 | 0.00 | 99 | 1034.1 |
| 20260508084027 | 55 | 3 | 0.0 | 0.0 | 0.00 | 0.00 | 0.00 | 99 | 1034.1 |
| 20260508083524 | 55 | 3 | 0.0 | 0.0 | 0.00 | 0.00 | 0.00 | 99 | 1033.9 |
| 20260508083021 | 55 | 3 | 0.0 | 0.0 | 0.00 | 0.00 | 0.00 | 99 | 1033.9 |
| 20260508082517 | 55 | 3 | 0.0 | 0.0 | 0.00 | 0.00 | 0.00 | 99 | 1034.2 |
| 20260508082014 | 55 | 1 | 0.0 | 0.0 | 0.00 | 0.00 | 0.00 | 99 | 1034.2 |
| 20260508081512 | 55 | 1 | 0.0 | 0.0 | 0.00 | 0.00 | 0.00 | 98 | 1033.9 |
| 20260508081007 | 55 | 1 | 0.0 | 0.0 | 0.00 | 0.00 | 0.00 | 98 | 1034.1 |
| 20260508080506 | 55 | 1 | 0.0 | 0.0 | 0.00 | 0.00 | 0.00 | 98 | 1033.7 |
| 20260508080002 | 55 | 1 | 0.0 | 0.0 | 0.00 | 0.00 | 0.00 | 98 | 1034.2 |
| 20260508075459 | 55 | 1 | 0.0 | 0.0 | 0.00 | 0.00 | 0.00 | 98 | 1034.1 |
| 20260508074957 | 55 | 1 | 0.0 | 0.0 | 0.00 | 0.00 | 0.00 | 98 | 1034.2 |
| 20260508074455 | 56 | 1 | 0.0 | 0.0 | 0.00 | 0.00 | 0.00 | 98 | 1034.2 |
| 20260508073951 | 56 | 1 | 0.0 | 0.0 | 0.00 | 0.00 | 0.00 | 98 | 1034.4 |
| 20260508073448 | 56 | 1 | 0.0 | 0.0 | 0.00 | 0.00 | 0.00 | 98 | 1034.4 |
| 20260508072945 | 56 | 1 | 0.0 | 0.0 | 0.00 | 0.00 | 0.00 | 98 | 1034.5 |
| 20260508072442 | 56 | 1 | 0.0 | 0.0 | 0.00 | 0.00 | 0.00 | 97 | 1034.4 |
| 20260508071939 | 56 | 1 | 0.0 | 0.0 | 0.00 | 0.00 | 0.00 | 97 | 1034.7 |
| 20260508071437 | 56 | 1 | 0.0 | 0.0 | 0.00 | 0.00 | 0.00 | 97 | 1034.8 |
| 20260508070934 | 56 | 1 | 0.0 | 0.0 | 0.00 | 0.00 | 0.00 | 97 | 1034.7 |
| 20260508070432 | 56 | 1 | 0.0 | 0.0 | 0.00 | 0.00 | 0.00 | 96 | 1034.6 |
| 20260508065930 | 56 | 1 | 0.0 | 0.0 | 0.00 | 0.00 | 0.00 | 96 | 1034.6 |
| 20260508065428 | 56 | 1 | 0.0 | 0.0 | 0.00 | 0.00 | 0.00 | 96 | 1034.8 |
| 20260508064925 | 57 | 1 | 0.0 | 0.0 | 0.00 | 0.00 | 0.00 | 96 | 1034.6 |
| 20260508064422 | 57 | 1 | 0.0 | 0.0 | 0.00 | 0.00 | 0.00 | 96 | 1034.6 |
| 20260508063920 | 57 | 1 | 0.0 | 0.0 | 0.00 | 0.00 | 0.00 | 96 | 1034.3 |
| 20260508063418 | 56 | 1 | 0.0 | 0.0 | 0.00 | 0.00 | 0.00 | 96 | 1035.0 |
| 20260508062915 | 57 | 1 | 0.0 | 0.0 | 0.00 | 0.00 | 0.00 | 96 | 1034.8 |
| 20260508062413 | 57 | 1 | 0.0 | 0.0 | 0.00 | 0.00 | 0.00 | 96 | 1034.6 |
| 20260508061909 | 56 | 1 | 0.0 | 0.0 | 0.00 | 0.00 | 0.00 | 96 | 1034.7 |
| 20260508061407 | 57 | 1 | 0.0 | 0.0 | 0.00 | 0.00 | 0.00 | 96 | 1034.8 |
| 20260508060903 | 57 | 1 | 0.0 | 0.0 | 0.00 | 0.00 | 0.00 | 96 | 1034.8 |
| 20260508060401 | 57 | 1 | 0.0 | 0.0 | 0.00 | 0.00 | 0.00 | 96 | 1035.0 |
| 20260508055901 | 57 | 1 | 0.0 | 0.0 | 0.00 | 0.00 | 0.00 | 95 | 1034.6 |